WAT2933 KDFW-MZBZ

Flight info

Callsign WAT2933
Flight time 2h 24m
Altitude 35000
Route DARTZ9 TNV DCT MUSYL DCT PEGLG/N0455F370 L208 DUTNA UL208 MID UB753 DUSLO DCT TUGET UB753 MEBUM MEBUM1A
Aircraft A320/M-SDE3FGHIRWY/LB1

Departure

Time 2026-05-01 12:44
Airport Dallas Fort Worth International Airport (KDFW)

Arrival

Time 2026-05-01 15:09
Airport Philip S. W. Goldson International Airport (MZBZ)
Time Latitude Longitude Altitude Speed Heading
2026-05-01 12:22 32.90397 -97.04566 596 ft 0 kts 79°
2026-05-01 12:35 32.90393 -97.04592 596 ft 4 kts 79°
2026-05-01 12:35 32.90391 -97.04602 596 ft 0 kts 79°
2026-05-01 12:38 32.90392 -97.04599 596 ft 1 kts 70°
2026-05-01 12:38 32.90403 -97.04615 596 ft 7 kts 265°
2026-05-01 12:38 32.90364 -97.04727 596 ft 22 kts 226°
2026-05-01 12:39 32.90197 -97.04762 597 ft 29 kts 181°
2026-05-01 12:39 32.89972 -97.04764 599 ft 36 kts 178°
2026-05-01 12:39 32.89725 -97.04765 597 ft 37 kts 180°
2026-05-01 12:39 32.89469 -97.04760 595 ft 37 kts 180°
2026-05-01 12:40 32.89243 -97.04763 595 ft 32 kts 179°
2026-05-01 12:40 32.89012 -97.04763 590 ft 34 kts 181°
2026-05-01 12:40 32.88789 -97.04766 591 ft 29 kts 180°
2026-05-01 12:40 32.88583 -97.04768 587 ft 26 kts 181°
2026-05-01 12:41 32.88476 -97.04807 588 ft 10 kts 215°
2026-05-01 12:41 32.88423 -97.04814 589 ft 7 kts 175°
2026-05-01 12:41 32.88384 -97.04810 589 ft 5 kts 177°
2026-05-01 12:41 32.88355 -97.04810 589 ft 4 kts 179°
2026-05-01 12:42 32.88333 -97.04810 589 ft 3 kts 179°
2026-05-01 12:42 32.88313 -97.04810 589 ft 5 kts 179°
2026-05-01 12:42 32.88249 -97.04808 588 ft 14 kts 179°
2026-05-01 12:42 32.88126 -97.04806 586 ft 22 kts 183°
2026-05-01 12:43 32.87993 -97.04823 587 ft 10 kts 230°
2026-05-01 12:43 32.87987 -97.04935 587 ft 17 kts 266°
2026-05-01 12:43 32.87983 -97.05060 588 ft 18 kts 269°
2026-05-01 12:43 32.88042 -97.05090 590 ft 10 kts
2026-05-01 12:44 32.88265 -97.05088 591 ft 66 kts
2026-05-01 12:44 32.88948 -97.05088 588 ft 127 kts 360°
2026-05-01 12:44 32.91136 -97.05133 1276 ft 161 kts 359°
2026-05-01 12:45 32.93275 -97.05441 2681 ft 154 kts 354°
2026-05-01 12:45 32.94359 -97.05801 3043 ft 168 kts 349°
2026-05-01 12:45 32.95482 -97.06255 3527 ft 173 kts 349°
2026-05-01 12:46 32.96672 -97.06680 3863 ft 188 kts 352°
2026-05-01 12:46 32.97989 -97.07107 4061 ft 212 kts 351°
2026-05-01 12:46 32.99481 -97.07641 4344 ft 238 kts 342°
2026-05-01 12:46 33.00812 -97.08971 4806 ft 268 kts 304°
2026-05-01 12:47 33.01350 -97.11141 5503 ft 280 kts 277°
2026-05-01 12:47 33.01347 -97.13472 6371 ft 282 kts 266°
2026-05-01 12:47 33.01131 -97.15801 7224 ft 283 kts 263°
2026-05-01 12:47 33.00846 -97.18120 8003 ft 287 kts 262°
2026-05-01 12:48 33.00519 -97.20485 8765 ft 290 kts 261°
2026-05-01 12:48 32.99971 -97.22762 9602 ft 292 kts 247°
2026-05-01 12:48 32.98972 -97.24860 10428 ft 293 kts 236°
2026-05-01 12:48 32.97562 -97.26735 10708 ft 317 kts 223°
2026-05-01 12:49 32.95663 -97.28238 10861 ft 342 kts 207°
2026-05-01 12:49 32.93319 -97.29101 11127 ft 363 kts 190°
2026-05-01 12:49 32.90767 -97.29111 11710 ft 371 kts 178°
2026-05-01 12:49 32.88182 -97.28892 12388 ft 373 kts 181°
2026-05-01 12:50 32.85584 -97.28746 13085 ft 375 kts 183°
2026-05-01 12:50 32.83009 -97.28643 13776 ft 376 kts 185°
2026-05-01 12:50 32.80384 -97.28390 14388 ft 384 kts 176°
2026-05-01 12:50 32.77778 -97.27498 14931 ft 398 kts 164°
2026-05-01 12:51 32.75318 -97.25876 15481 ft 412 kts 150°
2026-05-01 12:51 32.73059 -97.23722 16023 ft 419 kts 147°
2026-05-01 12:51 32.68508 -97.19302 17082 ft 426 kts 148°
2026-05-01 12:52 32.66186 -97.17074 17534 ft 432 kts 149°
2026-05-01 12:52 32.61492 -97.12587 18523 ft 440 kts 150°
2026-05-01 12:52 32.59103 -97.10301 19005 ft 443 kts 150°
2026-05-01 12:53 32.54302 -97.05685 19992 ft 446 kts 150°
2026-05-01 12:53 32.51888 -97.03362 20510 ft 448 kts 150°
2026-05-01 12:53 32.49461 -97.01037 20990 ft 449 kts 150°
2026-05-01 12:54 32.47022 -96.98708 21458 ft 451 kts 150°
2026-05-01 12:54 32.42155 -96.94065 22323 ft 454 kts 151°
2026-05-01 12:54 32.39708 -96.91722 22894 ft 451 kts 151°
2026-05-01 12:55 32.34822 -96.87056 23773 ft 452 kts 151°
2026-05-01 12:55 32.32372 -96.84721 24061 ft 453 kts 151°
2026-05-01 12:55 32.29884 -96.82478 24343 ft 448 kts 157°
2026-05-01 12:56 32.27194 -96.80710 24633 ft 438 kts 166°
2026-05-01 12:56 32.24381 -96.79459 24957 ft 430 kts 172°
2026-05-01 12:56 32.21576 -96.78373 25275 ft 430 kts 172°
2026-05-01 12:56 32.18726 -96.77268 25600 ft 431 kts 172°
2026-05-01 12:57 32.15876 -96.76162 25895 ft 431 kts 171°
2026-05-01 12:57 32.10174 -96.73942 26533 ft 432 kts 170°
2026-05-01 12:57 32.07317 -96.72827 26830 ft 433 kts 170°
2026-05-01 12:58 32.04457 -96.71715 27108 ft 434 kts 170°
2026-05-01 12:58 32.01627 -96.70620 27372 ft 434 kts 170°
2026-05-01 12:58 31.98751 -96.69506 27615 ft 435 kts 170°
2026-05-01 12:59 31.92984 -96.67265 28121 ft 437 kts 170°
2026-05-01 12:59 31.90094 -96.66147 28354 ft 438 kts 170°
2026-05-01 12:59 31.84318 -96.63910 28875 ft 436 kts 168°
2026-05-01 13:00 31.78616 -96.61702 29499 ft 433 kts 168°
2026-05-01 13:00 31.75757 -96.60600 29798 ft 432 kts 168°
2026-05-01 13:01 31.70048 -96.58407 30365 ft 430 kts 169°
2026-05-01 13:01 31.67204 -96.57313 30606 ft 430 kts 168°
2026-05-01 13:01 31.61520 -96.55119 31022 ft 431 kts 168°
2026-05-01 13:02 31.58662 -96.54024 31141 ft 434 kts 168°
2026-05-01 13:07 30.97554 -96.31137 34993 ft 452 kts 171°
2026-05-01 13:07 30.94549 -96.30026 35000 ft 454 kts 171°
2026-05-01 13:08 30.88512 -96.27781 35003 ft 455 kts 170°
2026-05-01 13:08 30.82521 -96.25555 35006 ft 455 kts 171°
2026-05-01 13:09 30.76477 -96.23326 35009 ft 456 kts 170°
2026-05-01 13:09 30.70422 -96.21087 35006 ft 457 kts 170°
2026-05-01 13:10 30.64410 -96.18873 35003 ft 456 kts 170°
2026-05-01 13:10 30.58355 -96.16653 34973 ft 456 kts 170°
2026-05-01 13:11 30.52305 -96.14428 34972 ft 456 kts 170°
2026-05-01 13:11 30.46252 -96.12205 34932 ft 456 kts 170°
2026-05-01 13:12 30.40203 -96.09984 34915 ft 456 kts 170°
2026-05-01 13:12 30.34183 -96.07781 34831 ft 457 kts 170°
2026-05-01 13:13 30.28245 -96.04975 34820 ft 472 kts 156°
2026-05-01 13:13 30.22952 -96.00315 34781 ft 481 kts 147°
2026-05-01 13:14 30.17737 -95.95427 34784 ft 483 kts 148°
2026-05-01 13:14 30.12526 -95.90575 34846 ft 485 kts 148°
2026-05-01 13:15 30.07265 -95.85687 34875 ft 486 kts 148°
2026-05-01 13:15 30.01995 -95.80783 34902 ft 487 kts 148°
2026-05-01 13:16 29.96725 -95.75879 34914 ft 487 kts 148°
2026-05-01 13:16 29.91475 -95.71009 34931 ft 488 kts 148°
2026-05-01 13:17 29.80852 -95.61181 34928 ft 491 kts 148°
2026-05-01 13:18 29.72887 -95.53826 34931 ft 492 kts 148°
2026-05-01 13:18 29.67550 -95.48918 34931 ft 491 kts 148°
2026-05-01 13:19 29.62220 -95.44014 34960 ft 490 kts 148°
2026-05-01 13:20 29.54252 -95.36673 34967 ft 489 kts 148°
2026-05-01 13:20 29.48976 -95.31830 34988 ft 489 kts 148°
2026-05-01 13:21 29.40981 -95.24520 34935 ft 491 kts 148°
2026-05-01 13:21 29.35631 -95.19633 34932 ft 493 kts 148°
2026-05-01 13:22 29.30301 -95.14769 34930 ft 494 kts 148°
2026-05-01 13:22 29.24922 -95.09864 34920 ft 495 kts 148°
2026-05-01 13:23 29.19535 -95.04959 34924 ft 495 kts 148°
2026-05-01 13:23 29.14142 -95.00059 34900 ft 495 kts 149°
2026-05-01 13:24 29.08743 -94.95147 34911 ft 496 kts 149°
2026-05-01 13:25 29.00647 -94.87816 34899 ft 498 kts 149°
2026-05-01 13:25 28.95208 -94.82910 34896 ft 499 kts 149°
2026-05-01 13:26 28.89763 -94.77992 34884 ft 499 kts 149°
2026-05-01 13:26 28.84357 -94.73099 34878 ft 499 kts 149°
2026-05-01 13:27 28.78916 -94.68191 34883 ft 499 kts 149°
2026-05-01 13:27 28.70740 -94.60846 34891 ft 499 kts 149°
2026-05-01 13:28 28.62593 -94.53537 34892 ft 500 kts 149°
2026-05-01 13:29 28.51656 -94.43751 34869 ft 500 kts 149°
2026-05-01 13:31 28.35260 -94.29103 34897 ft 501 kts 149°
2026-05-01 13:32 28.21586 -94.16958 34882 ft 500 kts 149°
2026-05-01 13:33 28.08078 -94.04473 34901 ft 503 kts 147°
2026-05-01 13:34 27.97489 -93.94221 34885 ft 502 kts 147°
2026-05-01 13:35 27.89449 -93.86621 34893 ft 502 kts 147°
2026-05-01 13:36 27.81407 -93.79022 34895 ft 503 kts 147°
2026-05-01 13:36 27.73417 -93.71424 34902 ft 503 kts 147°
2026-05-01 13:37 27.68062 -93.66351 34905 ft 503 kts 147°
2026-05-01 13:37 27.62696 -93.61288 34908 ft 503 kts 147°
2026-05-01 13:38 27.54684 -93.53727 34914 ft 503 kts 147°
2026-05-01 13:39 27.49311 -93.48679 34915 ft 503 kts 147°
2026-05-01 13:39 27.43933 -93.43627 34917 ft 503 kts 147°
2026-05-01 13:40 27.38560 -93.38589 34908 ft 503 kts 146°
2026-05-01 13:40 27.33224 -93.33585 34913 ft 502 kts 146°
2026-05-01 13:41 27.27858 -93.28556 34920 ft 502 kts 147°
2026-05-01 13:41 27.22489 -93.23532 34916 ft 502 kts 147°
2026-05-01 13:42 27.17125 -93.18521 34918 ft 502 kts 147°
2026-05-01 13:42 27.11792 -93.13554 34904 ft 501 kts 146°
2026-05-01 13:43 27.06429 -93.08568 34915 ft 500 kts 146°
2026-05-01 13:43 27.01071 -93.03581 34906 ft 500 kts 146°
2026-05-01 13:44 26.95716 -92.98595 34906 ft 501 kts 146°
2026-05-01 13:44 26.90387 -92.93640 34905 ft 501 kts 146°
2026-05-01 13:45 26.85017 -92.88673 34908 ft 501 kts 146°
2026-05-01 13:45 26.79560 -92.83873 34890 ft 495 kts 153°
2026-05-01 13:46 26.73686 -92.79930 34897 ft 492 kts 155°
2026-05-01 13:46 26.67841 -92.76020 34900 ft 492 kts 155°
2026-05-01 13:47 26.61965 -92.72083 34904 ft 492 kts 155°
2026-05-01 13:47 26.56085 -92.68156 34903 ft 492 kts 155°
2026-05-01 13:48 26.50200 -92.64234 34870 ft 493 kts 155°
2026-05-01 13:48 26.44298 -92.60297 34874 ft 495 kts 155°
2026-05-01 13:49 26.38419 -92.56392 34881 ft 496 kts 155°
2026-05-01 13:49 26.32485 -92.52461 34887 ft 496 kts 155°
2026-05-01 13:50 26.26555 -92.48522 34889 ft 496 kts 155°
2026-05-01 13:50 26.20620 -92.44585 34873 ft 497 kts 155°
2026-05-01 13:51 26.14719 -92.40681 34880 ft 497 kts 155°
2026-05-01 13:51 26.08769 -92.36751 34873 ft 497 kts 155°
2026-05-01 13:52 26.02820 -92.32824 34888 ft 498 kts 155°
2026-05-01 13:52 25.96863 -92.28893 34883 ft 498 kts 155°
2026-05-01 13:53 25.90945 -92.24983 34881 ft 498 kts 155°
2026-05-01 13:53 25.82010 -92.19114 34886 ft 498 kts 155°
2026-05-01 13:54 25.76045 -92.15209 34889 ft 497 kts 155°
2026-05-01 13:54 25.70126 -92.11327 34891 ft 497 kts 155°
2026-05-01 13:55 25.64173 -92.07420 34893 ft 497 kts 155°
2026-05-01 13:55 25.58222 -92.03515 34871 ft 497 kts 155°
2026-05-01 13:56 25.52261 -91.99620 34877 ft 498 kts 155°
2026-05-01 13:56 25.46333 -91.95762 34875 ft 498 kts 155°
2026-05-01 13:57 25.40360 -91.91871 34880 ft 498 kts 155°
2026-05-01 13:57 25.34389 -91.87978 34874 ft 499 kts 155°
2026-05-01 13:58 25.28411 -91.84076 34864 ft 499 kts 154°
2026-05-01 13:58 25.22464 -91.80210 34872 ft 499 kts 155°
2026-05-01 13:59 25.16469 -91.76326 34883 ft 500 kts 155°
2026-05-01 13:59 25.10466 -91.72438 34885 ft 500 kts 155°
2026-05-01 14:00 25.04503 -91.68580 34889 ft 500 kts 155°
2026-05-01 14:00 24.98504 -91.64702 34881 ft 500 kts 154°
2026-05-01 14:01 24.92511 -91.60825 34895 ft 499 kts 154°
2026-05-01 14:01 24.86535 -91.56960 34898 ft 498 kts 154°
2026-05-01 14:02 24.80597 -91.53137 34897 ft 497 kts 154°
2026-05-01 14:02 24.74630 -91.49299 34898 ft 497 kts 154°
2026-05-01 14:03 24.68665 -91.45461 34895 ft 496 kts 154°
2026-05-01 14:03 24.62714 -91.41632 34890 ft 495 kts 154°
2026-05-01 14:04 24.56802 -91.37839 34886 ft 495 kts 154°
2026-05-01 14:04 24.51820 -91.34646 34888 ft 495 kts 154°
2026-05-01 14:05 24.44660 -91.30878 34878 ft 490 kts 161°
2026-05-01 14:05 24.38423 -91.27864 34877 ft 490 kts 161°
2026-05-01 14:06 24.32230 -91.24866 34870 ft 489 kts 161°
2026-05-01 14:06 24.25999 -91.21856 34883 ft 489 kts 161°
2026-05-01 14:07 24.19773 -91.18855 34882 ft 489 kts 161°
2026-05-01 14:08 24.10440 -91.14345 34887 ft 489 kts 161°
2026-05-01 14:08 24.04254 -91.11371 34862 ft 489 kts 160°
2026-05-01 14:09 23.98017 -91.08372 34873 ft 490 kts 160°
2026-05-01 14:09 23.91776 -91.05375 34884 ft 490 kts 160°
2026-05-01 14:10 23.85570 -91.02407 34892 ft 490 kts 160°
2026-05-01 14:10 23.79329 -90.99410 34892 ft 490 kts 160°
2026-05-01 14:11 23.73085 -90.96409 34877 ft 490 kts 160°
2026-05-01 14:11 23.63726 -90.91917 34890 ft 490 kts 160°
2026-05-01 14:12 23.57528 -90.88966 34897 ft 489 kts 160°
2026-05-01 14:12 23.51295 -90.85996 34895 ft 489 kts 160°
2026-05-01 14:13 23.46119 -90.83529 34892 ft 488 kts 160°
2026-05-01 14:13 23.38839 -90.80061 34878 ft 489 kts 160°
2026-05-01 14:14 23.32654 -90.77115 34881 ft 489 kts 160°
2026-05-01 14:14 23.26431 -90.74155 34891 ft 488 kts 160°
2026-05-01 14:15 23.20215 -90.71203 34899 ft 487 kts 160°
2026-05-01 14:15 23.14041 -90.68281 34897 ft 487 kts 160°
2026-05-01 14:16 23.07846 -90.65341 34884 ft 487 kts 159°
2026-05-01 14:16 23.01641 -90.62393 34888 ft 487 kts 160°
2026-05-01 14:17 22.95426 -90.59454 34892 ft 487 kts 160°
2026-05-01 14:17 22.89246 -90.56539 34893 ft 487 kts 160°
2026-05-01 14:18 22.83031 -90.53604 34908 ft 487 kts 160°
2026-05-01 14:18 22.77868 -90.51164 34876 ft 487 kts 159°
2026-05-01 14:19 22.70603 -90.47738 34881 ft 487 kts 159°
2026-05-01 14:19 22.64378 -90.44806 34883 ft 488 kts 159°
2026-05-01 14:20 22.55064 -90.40433 34883 ft 488 kts 159°
2026-05-01 14:21 22.48888 -90.37529 34890 ft 488 kts 159°
2026-05-01 14:21 22.42662 -90.34609 34899 ft 487 kts 159°
2026-05-01 14:22 22.33349 -90.30257 34903 ft 485 kts 159°
2026-05-01 14:22 22.27193 -90.27388 34902 ft 485 kts 159°
2026-05-01 14:23 22.21009 -90.24492 34898 ft 484 kts 159°
2026-05-01 14:23 22.14825 -90.21600 34897 ft 484 kts 159°
2026-05-01 14:24 22.08686 -90.18735 34885 ft 484 kts 159°
2026-05-01 14:24 22.02510 -90.15864 34891 ft 483 kts 159°
2026-05-01 14:25 21.96340 -90.12992 34900 ft 483 kts 159°
2026-05-01 14:25 21.90171 -90.10111 34902 ft 483 kts 159°
2026-05-01 14:26 21.80962 -90.05829 34899 ft 483 kts 159°
2026-05-01 14:27 21.74791 -90.02969 34902 ft 482 kts 159°
2026-05-01 14:27 21.68632 -90.00114 34910 ft 482 kts 159°
2026-05-01 14:28 21.59445 -89.95863 34917 ft 481 kts 159°
2026-05-01 14:28 21.53305 -89.93020 34912 ft 480 kts 159°
2026-05-01 14:29 21.47169 -89.90184 34911 ft 480 kts 159°
2026-05-01 14:30 21.34899 -89.84527 34901 ft 480 kts 159°
2026-05-01 14:31 21.25738 -89.80302 34905 ft 480 kts 159°
2026-05-01 14:31 21.19608 -89.77474 34902 ft 480 kts 159°
2026-05-01 14:32 21.13470 -89.74663 34891 ft 480 kts 159°
2026-05-01 14:32 21.07375 -89.71866 34912 ft 479 kts 159°
2026-05-01 14:33 21.01248 -89.69049 34920 ft 479 kts 159°
2026-05-01 14:33 20.95117 -89.66235 34921 ft 479 kts 159°
2026-05-01 14:34 20.88943 -89.63538 34923 ft 479 kts 161°
2026-05-01 14:34 20.82696 -89.61074 34921 ft 479 kts 162°
2026-05-01 14:35 20.76477 -89.58661 34916 ft 479 kts 161°
2026-05-01 14:35 20.70234 -89.56170 34925 ft 479 kts 161°
2026-05-01 14:36 20.64011 -89.53641 34928 ft 479 kts 161°
2026-05-01 14:36 20.57780 -89.51126 34927 ft 478 kts 161°
2026-05-01 14:37 20.51598 -89.48639 34926 ft 478 kts 161°
2026-05-01 14:37 20.45371 -89.46146 34916 ft 478 kts 161°
2026-05-01 14:38 20.39145 -89.43665 34915 ft 478 kts 161°
2026-05-01 14:38 20.32923 -89.41168 34912 ft 478 kts 161°
2026-05-01 14:39 20.26746 -89.38698 34925 ft 477 kts 161°
2026-05-01 14:39 20.20526 -89.36217 34918 ft 477 kts 161°
2026-05-01 14:40 20.14307 -89.33733 34924 ft 477 kts 161°
2026-05-01 14:40 20.08091 -89.31241 34913 ft 477 kts 161°
2026-05-01 14:41 20.01871 -89.28759 34909 ft 478 kts 160°
2026-05-01 14:41 19.95691 -89.26301 34915 ft 477 kts 161°
2026-05-01 14:42 19.89470 -89.23826 34912 ft 477 kts 161°
2026-05-01 14:42 19.83250 -89.21356 34913 ft 477 kts 161°
2026-05-01 14:43 19.77055 -89.18889 34917 ft 476 kts 160°
2026-05-01 14:43 19.70927 -89.16454 34914 ft 476 kts 160°
2026-05-01 14:44 19.64713 -89.13993 34913 ft 476 kts 160°
2026-05-01 14:44 19.55394 -89.10301 34907 ft 477 kts 161°
2026-05-01 14:45 19.46121 -89.06632 34909 ft 477 kts 161°
2026-05-01 14:46 19.39909 -89.04170 34912 ft 476 kts 160°
2026-05-01 14:46 19.30593 -89.00494 34913 ft 476 kts 160°
2026-05-01 14:47 19.24389 -88.98043 34903 ft 476 kts 160°
2026-05-01 14:48 19.15121 -88.94387 34911 ft 476 kts 161°
2026-05-01 14:48 19.05796 -88.90718 34912 ft 477 kts 161°
2026-05-01 14:49 18.93398 -88.85838 34921 ft 477 kts 160°
2026-05-01 14:50 18.80931 -88.80943 33098 ft 486 kts 161°
2026-05-01 14:51 18.77746 -88.79695 31952 ft 490 kts 160°
2026-05-01 14:51 18.71363 -88.77196 29908 ft 489 kts 160°
2026-05-01 14:52 18.64999 -88.74712 27213 ft 496 kts 160°
2026-05-01 14:52 18.61757 -88.73448 26096 ft 497 kts 159°
2026-05-01 14:52 18.55261 -88.70904 24068 ft 497 kts 159°
2026-05-01 14:53 18.52033 -88.69641 23193 ft 493 kts 159°
2026-05-01 14:53 18.48835 -88.68387 22319 ft 488 kts 159°
2026-05-01 14:53 18.45673 -88.67150 21536 ft 482 kts 158°
2026-05-01 14:53 18.42591 -88.65947 20822 ft 476 kts 158°
2026-05-01 14:54 18.39513 -88.64748 20174 ft 468 kts 158°
2026-05-01 14:54 18.36487 -88.63568 19507 ft 458 kts 159°
2026-05-01 14:54 18.33537 -88.62416 18407 ft 447 kts 158°
2026-05-01 14:54 18.30659 -88.61293 17397 ft 434 kts 158°
2026-05-01 14:55 18.27920 -88.60227 17117 ft 405 kts 158°
2026-05-01 14:55 18.25363 -88.59231 16790 ft 381 kts 158°
2026-05-01 14:55 18.22878 -88.58259 16307 ft 381 kts 157°
2026-05-01 14:55 18.20440 -88.57303 15821 ft 377 kts 157°
2026-05-01 14:56 18.17978 -88.56383 15322 ft 376 kts 161°
2026-05-01 14:56 18.15413 -88.55831 14808 ft 377 kts 172°
2026-05-01 14:56 18.12794 -88.55693 14281 ft 377 kts 177°
2026-05-01 14:56 18.10173 -88.55623 13734 ft 377 kts 176°
2026-05-01 14:57 18.07554 -88.55553 13131 ft 376 kts 177°
2026-05-01 14:57 18.02356 -88.55404 11958 ft 371 kts 176°
2026-05-01 14:57 17.99779 -88.55331 11350 ft 369 kts 176°
2026-05-01 14:58 17.97258 -88.55261 10907 ft 363 kts 177°
2026-05-01 14:58 17.94791 -88.55194 10786 ft 347 kts 176°
2026-05-01 14:58 17.92434 -88.55132 10672 ft 328 kts 176°
2026-05-01 14:58 17.90239 -88.55074 10522 ft 304 kts 176°
2026-05-01 14:59 17.88171 -88.55019 10090 ft 293 kts 176°
2026-05-01 14:59 17.86162 -88.54962 9888 ft 287 kts 176°
2026-05-01 14:59 17.84169 -88.54902 9765 ft 285 kts 176°
2026-05-01 14:59 17.82185 -88.54843 9649 ft 285 kts 176°
2026-05-01 15:00 17.78241 -88.54729 9227 ft 287 kts 176°
2026-05-01 15:00 17.76254 -88.54672 8807 ft 286 kts 177°
2026-05-01 15:00 17.74280 -88.54615 8496 ft 281 kts 176°
2026-05-01 15:01 17.72330 -88.54560 8065 ft 281 kts 177°
2026-05-01 15:01 17.70379 -88.54502 7643 ft 281 kts 178°
2026-05-01 15:01 17.68431 -88.54445 7257 ft 279 kts 178°
2026-05-01 15:01 17.66503 -88.54390 6877 ft 277 kts 178°
2026-05-01 15:02 17.64615 -88.54339 6509 ft 274 kts 178°
2026-05-01 15:02 17.63968 -88.54321 6287 ft 277 kts 179°
2026-05-01 15:02 17.60761 -88.54234 5699 ft 271 kts 178°
2026-05-01 15:02 17.58920 -88.54182 5570 ft 258 kts 178°
2026-05-01 15:03 17.57172 -88.54084 5462 ft 245 kts 169°
2026-05-01 15:03 17.55507 -88.53709 5049 ft 247 kts 166°
2026-05-01 15:03 17.53826 -88.53305 4607 ft 249 kts 165°
2026-05-01 15:03 17.52133 -88.52892 4162 ft 250 kts 165°
2026-05-01 15:04 17.50571 -88.52243 3744 ft 237 kts 139°
2026-05-01 15:04 17.49724 -88.50869 3370 ft 229 kts 103°
2026-05-01 15:04 17.49850 -88.49244 2988 ft 225 kts 75°
2026-05-01 15:04 17.50282 -88.47705 2621 ft 216 kts 79°
2026-05-01 15:05 17.50613 -88.46214 2399 ft 202 kts 82°
2026-05-01 15:05 17.50904 -88.44814 1995 ft 193 kts 81°
2026-05-01 15:05 17.51180 -88.43466 1635 ft 185 kts 81°
2026-05-01 15:05 17.51440 -88.42229 1546 ft 162 kts 79°
2026-05-01 15:06 17.51670 -88.41162 1500 ft 144 kts 82°
2026-05-01 15:06 17.51883 -88.40176 1432 ft 140 kts 79°
2026-05-01 15:06 17.52096 -88.39196 1380 ft 135 kts 81°
2026-05-01 15:06 17.52303 -88.38237 1318 ft 136 kts 82°
2026-05-01 15:07 17.52511 -88.37266 1120 ft 139 kts 80°
2026-05-01 15:07 17.52723 -88.36290 942 ft 135 kts 78°
2026-05-01 15:07 17.52933 -88.35320 776 ft 139 kts 80°
2026-05-01 15:07 17.53150 -88.34342 589 ft 137 kts 80°
2026-05-01 15:08 17.53374 -88.33369 325 ft 139 kts 82°
2026-05-01 15:08 17.53572 -88.32381 200 ft 140 kts 78°
2026-05-01 15:08 17.53779 -88.31417 35 ft 131 kts 79°
2026-05-01 15:08 17.53956 -88.30600 18 ft 86 kts 79°
2026-05-01 15:09 17.54039 -88.30211 18 ft 42 kts 77°
2026-05-01 15:09 17.54063 -88.30097 17 ft 2 kts 204°
2026-05-01 15:09 17.54060 -88.30128 17 ft 6 kts 259°
2026-05-01 15:09 17.54041 -88.30209 18 ft 19 kts 255°
2026-05-01 15:10 17.54000 -88.30400 18 ft 34 kts 257°
2026-05-01 15:10 17.53882 -88.30875 18 ft 12 kts 210°
2026-05-01 15:10 17.53798 -88.30865 17 ft 13 kts 168°
2026-05-01 15:11 17.53702 -88.30843 17 ft 15 kts 166°